User: anonymous   Login
Location: Newark
(46.3833°N, 12.2833°E)
Time: 01:17:41
(UTC+00:00)
Language:

Hubble Space Telescope - Orbit

View from above orbital plane
View from above orbital plane
View from above satellite
View from above satellite

Ground track
Ground track

The orbit data is extracted from the following two-line orbital elements,

1 20580U 90037B   19235.95031264 +.00000292 +00000-0 +68002-5 0  9998
2 20580 028.4691 133.7954 0002875 117.9183 003.4698 15.09255949410825
Epoch (UTC): 23 August 2019 22:48:27
Eccentricity: 0.0002875
inclination: 28.4691°
perigee height: 536 km
apogee height: 540 km
right ascension of ascending node: 133.7954°
argument of perigee: 117.9183°
revolutions per day: 15.09255949
mean anomaly at epoch: 3.4698°
orbit number at epoch: 41082

The dashed part of the orbit path shows where the satellite is in the earth's shadow,  

DLR